Year,Month,Day,Hour,Minute,Value (Times are PST for temperature in C)
2017,08,15,00,00,11.50
2017,08,15,00,01,11.50
2017,08,15,00,02,11.50
2017,08,15,00,03,11.50
2017,08,15,00,04,11.50
2017,08,15,00,05,11.50
2017,08,15,00,06,11.50
2017,08,15,00,07,11.50
2017,08,15,00,08,11.50
2017,08,15,00,09,11.50
2017,08,15,00,10,11.40
2017,08,15,00,11,11.40
2017,08,15,00,12,11.40
2017,08,15,00,13,11.40
2017,08,15,00,14,11.50
2017,08,15,00,15,11.50
2017,08,15,00,16,11.50
2017,08,15,00,17,11.50
2017,08,15,00,18,11.50
2017,08,15,00,19,11.50
2017,08,15,00,20,11.50
2017,08,15,00,21,11.60
2017,08,15,00,22,11.60
2017,08,15,00,23,11.60
2017,08,15,00,24,11.60
2017,08,15,00,25,11.60
2017,08,15,00,26,11.60
2017,08,15,00,27,11.50
2017,08,15,00,28,11.50
2017,08,15,00,29,11.50
2017,08,15,00,30,11.50
2017,08,15,00,31,11.50
2017,08,15,00,32,11.50
2017,08,15,00,33,11.50
2017,08,15,00,34,11.50
2017,08,15,00,35,11.50
2017,08,15,00,36,11.50
2017,08,15,00,37,11.50
2017,08,15,00,38,11.50
2017,08,15,00,39,11.50
2017,08,15,00,40,11.50
2017,08,15,00,41,11.50
2017,08,15,00,42,11.50
2017,08,15,00,43,11.50
2017,08,15,00,44,11.50
2017,08,15,00,45,11.50
2017,08,15,00,46,11.50
2017,08,15,00,47,11.50
2017,08,15,00,48,11.50
2017,08,15,00,49,11.50
2017,08,15,00,50,11.50
2017,08,15,00,51,11.50
2017,08,15,00,52,11.50
2017,08,15,00,53,11.60
2017,08,15,00,54,11.50
2017,08,15,00,55,11.60
2017,08,15,00,56,11.60
2017,08,15,00,57,11.50
2017,08,15,00,58,11.50
2017,08,15,00,59,11.50
2017,08,15,01,00,11.50
2017,08,15,01,01,11.50
2017,08,15,01,02,11.50
2017,08,15,01,03,11.50
2017,08,15,01,04,11.40
2017,08,15,01,05,11.50
2017,08,15,01,06,11.40
2017,08,15,01,07,11.40
2017,08,15,01,08,11.40
2017,08,15,01,09,11.40
2017,08,15,01,10,11.40
2017,08,15,01,11,11.40
2017,08,15,01,12,11.40
2017,08,15,01,13,11.40
2017,08,15,01,14,11.40
2017,08,15,01,15,11.40
2017,08,15,01,16,11.40
2017,08,15,01,17,11.40
2017,08,15,01,18,11.40
2017,08,15,01,19,11.40
2017,08,15,01,20,11.30
2017,08,15,01,21,11.30
2017,08,15,01,22,11.30
2017,08,15,01,23,11.30
2017,08,15,01,24,11.30
2017,08,15,01,25,11.30
2017,08,15,01,26,11.30
2017,08,15,01,27,11.30
2017,08,15,01,28,11.30
2017,08,15,01,29,11.20
2017,08,15,01,30,11.20
2017,08,15,01,31,11.20
2017,08,15,01,32,11.20
2017,08,15,01,33,11.20
2017,08,15,01,34,11.20
2017,08,15,01,35,11.20
2017,08,15,01,36,11.20
2017,08,15,01,37,11.10
2017,08,15,01,38,11.10
2017,08,15,01,39,11.10
2017,08,15,01,40,11.10
2017,08,15,01,41,11.10
2017,08,15,01,42,11.10
2017,08,15,01,43,11.00
2017,08,15,01,44,11.00
2017,08,15,01,45,11.00
2017,08,15,01,46,11.00
2017,08,15,01,47,10.90
2017,08,15,01,48,10.90
2017,08,15,01,49,10.90
2017,08,15,01,50,10.90
2017,08,15,01,51,10.90
2017,08,15,01,52,10.90
2017,08,15,01,53,10.90
2017,08,15,01,54,10.90
2017,08,15,01,55,10.90
2017,08,15,01,56,10.90
2017,08,15,01,57,10.90
2017,08,15,01,58,10.80
2017,08,15,01,59,10.80
2017,08,15,02,00,10.80
2017,08,15,02,01,10.80
2017,08,15,02,02,10.80
2017,08,15,02,03,10.80
2017,08,15,02,04,10.80
2017,08,15,02,05,10.80
2017,08,15,02,06,10.80
2017,08,15,02,07,10.70
2017,08,15,02,08,10.70
2017,08,15,02,09,10.70
2017,08,15,02,10,10.70
2017,08,15,02,11,10.70
2017,08,15,02,12,10.70
2017,08,15,02,13,10.70
2017,08,15,02,14,10.60
2017,08,15,02,15,10.60
2017,08,15,02,16,10.60
2017,08,15,02,17,10.60
2017,08,15,02,18,10.60
2017,08,15,02,19,10.60
2017,08,15,02,20,10.60
2017,08,15,02,21,10.60
2017,08,15,02,22,10.60
2017,08,15,02,23,10.60
2017,08,15,02,24,10.60
2017,08,15,02,25,10.60
2017,08,15,02,26,10.60
2017,08,15,02,27,10.60
2017,08,15,02,28,10.50
2017,08,15,02,29,10.50
2017,08,15,02,30,10.50
2017,08,15,02,31,10.40
2017,08,15,02,32,10.40
2017,08,15,02,33,10.40
2017,08,15,02,34,10.40
2017,08,15,02,35,10.40
2017,08,15,02,36,10.40
2017,08,15,02,37,10.40
2017,08,15,02,38,10.40
2017,08,15,02,39,10.40
2017,08,15,02,40,10.40
2017,08,15,02,41,10.40
2017,08,15,02,42,10.40
2017,08,15,02,43,10.40
2017,08,15,02,44,10.40
2017,08,15,02,45,10.40
2017,08,15,02,46,10.40
2017,08,15,02,47,10.40
2017,08,15,02,48,10.40
2017,08,15,02,49,10.40
2017,08,15,02,50,10.40
2017,08,15,02,51,10.40
2017,08,15,02,52,10.40
2017,08,15,02,53,10.40
2017,08,15,02,54,10.30
2017,08,15,02,55,10.30
2017,08,15,02,56,10.30
2017,08,15,02,57,10.30
2017,08,15,02,58,10.30
2017,08,15,02,59,10.30
2017,08,15,03,00,10.30
2017,08,15,03,01,10.20
2017,08,15,03,02,10.20
2017,08,15,03,03,10.20
2017,08,15,03,04,10.20
2017,08,15,03,05,10.20
2017,08,15,03,06,10.20
2017,08,15,03,07,10.20
2017,08,15,03,08,10.20
2017,08,15,03,09,10.20
2017,08,15,03,10,10.20
2017,08,15,03,11,10.20
2017,08,15,03,12,10.20
2017,08,15,03,13,10.20
2017,08,15,03,14,10.20
2017,08,15,03,15,10.20
2017,08,15,03,16,10.20
2017,08,15,03,17,10.20
2017,08,15,03,18,10.20
2017,08,15,03,19,10.20
2017,08,15,03,20,10.20
2017,08,15,03,21,10.20
2017,08,15,03,22,10.10
2017,08,15,03,23,10.10
2017,08,15,03,24,10.10
2017,08,15,03,25,10.10
2017,08,15,03,26,10.10
2017,08,15,03,27,10.10
2017,08,15,03,28,10.10
2017,08,15,03,29,10.10
2017,08,15,03,30,10.00
2017,08,15,03,31,10.00
2017,08,15,03,32,10.00
2017,08,15,03,33,10.00
2017,08,15,03,34,10.00
2017,08,15,03,35,10.00
2017,08,15,03,36,10.00
2017,08,15,03,37,10.00
2017,08,15,03,38,10.00
2017,08,15,03,39,10.00
2017,08,15,03,40,10.00
2017,08,15,03,41,10.00
2017,08,15,03,42,10.00
2017,08,15,03,43,9.90
2017,08,15,03,44,9.90
2017,08,15,03,45,9.90
2017,08,15,03,46,9.90
2017,08,15,03,47,9.80
2017,08,15,03,48,9.80
2017,08,15,03,49,9.80
2017,08,15,03,50,9.80
2017,08,15,03,51,9.80
2017,08,15,03,52,9.80
2017,08,15,03,53,9.80
2017,08,15,03,54,9.80
2017,08,15,03,55,9.80
2017,08,15,03,56,9.80
2017,08,15,03,57,9.80
2017,08,15,03,58,9.80
2017,08,15,03,59,9.80
2017,08,15,04,00,9.80
2017,08,15,04,01,9.80
2017,08,15,04,02,9.80
2017,08,15,04,03,9.70
2017,08,15,04,04,9.70
2017,08,15,04,05,9.70
2017,08,15,04,06,9.70
2017,08,15,04,07,9.70
2017,08,15,04,08,9.70
2017,08,15,04,09,9.60
2017,08,15,04,10,9.60
2017,08,15,04,11,9.60
2017,08,15,04,12,9.60
2017,08,15,04,13,9.60
2017,08,15,04,14,9.60
2017,08,15,04,15,9.60
2017,08,15,04,16,9.60
2017,08,15,04,17,9.50
2017,08,15,04,18,9.50
2017,08,15,04,19,9.50
2017,08,15,04,20,9.40
2017,08,15,04,21,9.40
2017,08,15,04,22,9.40
2017,08,15,04,23,9.40
2017,08,15,04,24,9.40
2017,08,15,04,25,9.40
2017,08,15,04,26,9.40
2017,08,15,04,27,9.40
2017,08,15,04,28,9.40
2017,08,15,04,29,9.40
2017,08,15,04,30,9.40
2017,08,15,04,31,9.40
2017,08,15,04,32,9.40
2017,08,15,04,33,9.40
2017,08,15,04,34,9.40
2017,08,15,04,35,9.40
2017,08,15,04,36,9.40
2017,08,15,04,37,9.40
2017,08,15,04,38,9.40
2017,08,15,04,39,9.40
2017,08,15,04,40,9.40
2017,08,15,04,41,9.30
2017,08,15,04,42,9.30
2017,08,15,04,43,9.30
2017,08,15,04,44,9.30
2017,08,15,04,45,9.30
2017,08,15,04,46,9.30
2017,08,15,04,47,9.30
2017,08,15,04,48,9.30
2017,08,15,04,49,9.30
2017,08,15,04,50,9.30
2017,08,15,04,51,9.30
2017,08,15,04,52,9.30
2017,08,15,04,53,9.30
2017,08,15,04,54,9.30
2017,08,15,04,55,9.30
2017,08,15,04,56,9.30
2017,08,15,04,57,9.30
2017,08,15,04,58,9.30
2017,08,15,04,59,9.30
2017,08,15,05,00,9.30
2017,08,15,05,01,9.30
2017,08,15,05,02,9.30
2017,08,15,05,03,9.30
2017,08,15,05,04,9.30
2017,08,15,05,05,9.20
2017,08,15,05,06,9.20
2017,08,15,05,07,9.20
2017,08,15,05,08,9.20
2017,08,15,05,09,9.20
2017,08,15,05,10,9.20
2017,08,15,05,11,9.20
2017,08,15,05,12,9.20
2017,08,15,05,13,9.10
2017,08,15,05,14,9.10
2017,08,15,05,15,9.10
2017,08,15,05,16,9.10
2017,08,15,05,17,9.10
2017,08,15,05,18,9.10
2017,08,15,05,19,9.10
2017,08,15,05,20,9.10
2017,08,15,05,21,9.10
2017,08,15,05,22,9.10
2017,08,15,05,23,9.10
2017,08,15,05,24,9.10
2017,08,15,05,25,9.10
2017,08,15,05,26,9.00
2017,08,15,05,27,9.00
2017,08,15,05,28,9.00
2017,08,15,05,29,9.00
2017,08,15,05,30,9.00
2017,08,15,05,31,9.00
2017,08,15,05,32,9.00
2017,08,15,05,33,9.00
2017,08,15,05,34,9.00
2017,08,15,05,35,9.00
2017,08,15,05,36,9.00
2017,08,15,05,37,9.00
2017,08,15,05,38,8.90
2017,08,15,05,39,8.90
2017,08,15,05,40,8.90
2017,08,15,05,41,8.90
2017,08,15,05,42,8.90
2017,08,15,05,43,8.80
2017,08,15,05,44,8.80
2017,08,15,05,45,8.80
2017,08,15,05,46,8.80
2017,08,15,05,47,8.80
2017,08,15,05,48,8.80
2017,08,15,05,49,8.80
2017,08,15,05,50,8.80
2017,08,15,05,51,8.80
2017,08,15,05,52,8.80
2017,08,15,05,53,8.80
2017,08,15,05,54,8.80
2017,08,15,05,55,8.80
2017,08,15,05,56,8.80
2017,08,15,05,57,8.80
2017,08,15,05,58,8.80
2017,08,15,05,59,8.70
2017,08,15,06,00,8.70
2017,08,15,06,01,8.70
2017,08,15,06,02,8.70
2017,08,15,06,03,8.70
2017,08,15,06,04,8.70
2017,08,15,06,05,8.70
2017,08,15,06,06,8.70
2017,08,15,06,07,8.70
2017,08,15,06,08,8.70
2017,08,15,06,09,8.70
2017,08,15,06,10,8.70
2017,08,15,06,11,8.70
2017,08,15,06,12,8.70
2017,08,15,06,13,8.70
2017,08,15,06,14,8.60
2017,08,15,06,15,8.60
2017,08,15,06,16,8.60
2017,08,15,06,17,8.60
2017,08,15,06,18,8.60
2017,08,15,06,19,8.60
2017,08,15,06,20,8.60
2017,08,15,06,21,8.60
2017,08,15,06,22,8.60
2017,08,15,06,23,8.60
2017,08,15,06,24,8.60
2017,08,15,06,25,8.60
2017,08,15,06,26,8.60
2017,08,15,06,27,8.60
2017,08,15,06,28,8.60
2017,08,15,06,29,8.60
2017,08,15,06,30,8.60
2017,08,15,06,31,8.50
2017,08,15,06,32,8.50
2017,08,15,06,33,8.50
2017,08,15,06,34,8.50
2017,08,15,06,35,8.50
2017,08,15,06,36,8.50
2017,08,15,06,37,8.50
2017,08,15,06,38,8.60
2017,08,15,06,39,8.60
2017,08,15,06,40,8.60
2017,08,15,06,41,8.60
2017,08,15,06,42,8.60
2017,08,15,06,43,8.60
2017,08,15,06,44,8.60
2017,08,15,06,45,8.60
2017,08,15,06,46,8.60
2017,08,15,06,47,8.60
2017,08,15,06,48,8.60
2017,08,15,06,49,8.60
2017,08,15,06,50,8.60
2017,08,15,06,51,8.60
2017,08,15,06,52,8.60
2017,08,15,06,53,8.60
2017,08,15,06,54,8.60
2017,08,15,06,55,8.60
2017,08,15,06,56,8.60
2017,08,15,06,57,8.60
2017,08,15,06,58,8.60
2017,08,15,06,59,8.60
2017,08,15,07,00,8.60
2017,08,15,07,01,8.60
2017,08,15,07,02,8.60
2017,08,15,07,03,8.60
2017,08,15,07,04,8.60
2017,08,15,07,05,8.60
2017,08,15,07,06,8.60
2017,08,15,07,07,8.70
2017,08,15,07,08,8.70
2017,08,15,07,09,8.70
2017,08,15,07,10,8.70
2017,08,15,07,11,8.70
2017,08,15,07,12,8.70
2017,08,15,07,13,8.70
2017,08,15,07,14,8.70
2017,08,15,07,15,8.70
2017,08,15,07,16,8.70
2017,08,15,07,17,8.80
2017,08,15,07,18,8.80
2017,08,15,07,19,8.80
2017,08,15,07,20,8.80
2017,08,15,07,21,8.90
2017,08,15,07,22,8.90
2017,08,15,07,23,9.00
2017,08,15,07,24,9.00
2017,08,15,07,25,9.10
2017,08,15,07,26,9.10
2017,08,15,07,27,9.20
2017,08,15,07,28,9.20
2017,08,15,07,29,9.20
2017,08,15,07,30,9.20
2017,08,15,07,31,9.20
2017,08,15,07,32,9.20
2017,08,15,07,33,9.20
2017,08,15,07,34,9.20
2017,08,15,07,35,9.20
2017,08,15,07,36,9.30
2017,08,15,07,37,9.30
2017,08,15,07,38,9.40
2017,08,15,07,39,9.50
2017,08,15,07,40,9.60
2017,08,15,07,41,9.60
2017,08,15,07,42,9.70
2017,08,15,07,43,9.70
2017,08,15,07,44,9.80
2017,08,15,07,45,9.80
2017,08,15,07,46,9.90
2017,08,15,07,47,9.90
2017,08,15,07,48,9.90
2017,08,15,07,49,9.90
2017,08,15,07,50,9.90
2017,08,15,07,51,10.00
2017,08,15,07,52,10.00
2017,08,15,07,53,10.10
2017,08,15,07,54,10.10
2017,08,15,07,55,10.20
2017,08,15,07,56,10.20
2017,08,15,07,57,10.30
2017,08,15,07,58,10.30
2017,08,15,07,59,10.40
2017,08,15,08,00,10.40
2017,08,15,08,01,10.50
2017,08,15,08,02,10.50
2017,08,15,08,03,10.60
2017,08,15,08,04,10.70
2017,08,15,08,05,10.70
2017,08,15,08,06,10.80
2017,08,15,08,07,10.80
2017,08,15,08,08,10.80
2017,08,15,08,09,10.90
2017,08,15,08,10,11.00
2017,08,15,08,11,11.10
2017,08,15,08,12,11.10
2017,08,15,08,13,11.20
2017,08,15,08,14,11.20
2017,08,15,08,15,11.30
2017,08,15,08,16,11.30
2017,08,15,08,17,11.30
2017,08,15,08,18,11.30
2017,08,15,08,19,11.30
2017,08,15,08,20,11.40
2017,08,15,08,21,11.50
2017,08,15,08,22,11.60
2017,08,15,08,23,11.70
2017,08,15,08,24,11.80
2017,08,15,08,25,11.90
2017,08,15,08,26,12.10
2017,08,15,08,27,12.20
2017,08,15,08,28,12.20
2017,08,15,08,29,12.30
2017,08,15,08,30,12.30
2017,08,15,08,31,12.30
2017,08,15,08,32,12.30
2017,08,15,08,33,12.30
2017,08,15,08,34,12.20
2017,08,15,08,35,12.20
2017,08,15,08,36,12.20
2017,08,15,08,37,12.20
2017,08,15,08,38,12.20
2017,08,15,08,39,12.20
2017,08,15,08,40,12.20
2017,08,15,08,41,12.20
2017,08,15,08,42,12.20
2017,08,15,08,43,12.20
2017,08,15,08,44,12.30
2017,08,15,08,45,12.30
2017,08,15,08,46,12.40
2017,08,15,08,47,12.40
2017,08,15,08,48,12.50
2017,08,15,08,49,12.50
2017,08,15,08,50,12.50
2017,08,15,08,51,12.50
2017,08,15,08,52,12.40
2017,08,15,08,53,12.40
2017,08,15,08,54,12.40
2017,08,15,08,55,12.40
2017,08,15,08,56,12.40
2017,08,15,08,57,12.40
2017,08,15,08,58,12.30
2017,08,15,08,59,12.30
2017,08,15,09,00,12.20
2017,08,15,09,01,12.20
2017,08,15,09,02,12.20
2017,08,15,09,03,12.20
2017,08,15,09,04,12.20
2017,08,15,09,05,12.20
2017,08,15,09,06,12.20
2017,08,15,09,07,12.20
2017,08,15,09,08,12.20
2017,08,15,09,09,12.20
2017,08,15,09,10,12.20
2017,08,15,09,11,12.20
2017,08,15,09,12,12.20
2017,08,15,09,13,12.30
2017,08,15,09,14,12.30
2017,08,15,09,15,12.30
2017,08,15,09,16,12.30
2017,08,15,09,17,12.30
2017,08,15,09,18,12.30
2017,08,15,09,19,12.40
2017,08,15,09,20,12.40
2017,08,15,09,21,12.50
2017,08,15,09,22,12.60
2017,08,15,09,23,12.60
2017,08,15,09,24,12.60
2017,08,15,09,25,12.70
2017,08,15,09,26,12.70
2017,08,15,09,27,12.80
2017,08,15,09,28,12.80
2017,08,15,09,29,12.90
2017,08,15,09,30,12.90
2017,08,15,09,31,13.00
2017,08,15,09,32,13.10
2017,08,15,09,33,13.20
2017,08,15,09,34,13.20
2017,08,15,09,35,13.30
2017,08,15,09,36,13.40
2017,08,15,09,37,13.60
2017,08,15,09,38,13.70
2017,08,15,09,39,13.90
2017,08,15,09,40,14.00
2017,08,15,09,41,14.00
2017,08,15,09,42,14.10
2017,08,15,09,43,14.10
2017,08,15,09,44,14.10
2017,08,15,09,45,14.10
2017,08,15,09,46,14.20
2017,08,15,09,47,14.20
2017,08,15,09,48,14.20
2017,08,15,09,49,14.20
2017,08,15,09,50,14.10
2017,08,15,09,51,14.10
2017,08,15,09,52,14.00
2017,08,15,09,53,14.00
2017,08,15,09,54,13.80
2017,08,15,09,55,13.80
2017,08,15,09,56,13.70
2017,08,15,09,57,13.60
2017,08,15,09,58,13.60
2017,08,15,09,59,13.60
2017,08,15,10,00,13.50
2017,08,15,10,01,13.50
2017,08,15,10,02,13.50
2017,08,15,10,03,13.60
2017,08,15,10,04,13.60
2017,08,15,10,05,13.60
2017,08,15,10,06,13.60
2017,08,15,10,07,13.60
2017,08,15,10,08,13.60
2017,08,15,10,09,13.60
2017,08,15,10,10,13.60
2017,08,15,10,11,13.60
2017,08,15,10,12,13.70
2017,08,15,10,13,13.70
2017,08,15,10,14,13.80
2017,08,15,10,15,13.80
2017,08,15,10,16,13.80
2017,08,15,10,17,13.80
2017,08,15,10,18,13.90
2017,08,15,10,19,13.90
2017,08,15,10,20,13.90
2017,08,15,10,21,13.90
2017,08,15,10,22,14.00
2017,08,15,10,23,14.10
2017,08,15,10,24,14.20
2017,08,15,10,25,14.30
2017,08,15,10,26,14.40
2017,08,15,10,27,14.50
2017,08,15,10,28,14.50
2017,08,15,10,29,14.60
2017,08,15,10,30,14.60
2017,08,15,10,31,14.60
2017,08,15,10,32,14.70
2017,08,15,10,33,14.70
2017,08,15,10,34,14.80
2017,08,15,10,35,14.80
2017,08,15,10,36,14.90
2017,08,15,10,37,14.90
2017,08,15,10,38,15.00
2017,08,15,10,39,15.00
2017,08,15,10,40,15.00
2017,08,15,10,41,15.00
2017,08,15,10,42,14.90
2017,08,15,10,43,14.90
2017,08,15,10,44,14.90
2017,08,15,10,45,14.80
2017,08,15,10,46,14.80
2017,08,15,10,47,14.80
2017,08,15,10,48,14.90
2017,08,15,10,49,14.90
2017,08,15,10,50,15.00
2017,08,15,10,51,15.00
2017,08,15,10,52,15.10
2017,08,15,10,53,15.10
2017,08,15,10,54,15.20
2017,08,15,10,55,15.30
2017,08,15,10,56,15.40
2017,08,15,10,57,15.50
2017,08,15,10,58,15.60
2017,08,15,10,59,15.80
2017,08,15,11,00,15.90
2017,08,15,11,01,15.90
2017,08,15,11,02,16.00
2017,08,15,11,03,16.10
2017,08,15,11,04,16.10
2017,08,15,11,05,16.20
2017,08,15,11,06,16.20
2017,08,15,11,07,16.20
2017,08,15,11,08,16.30
2017,08,15,11,09,16.40
2017,08,15,11,10,16.50
2017,08,15,11,11,16.50
2017,08,15,11,12,16.60
2017,08,15,11,13,16.70
2017,08,15,11,14,16.80
2017,08,15,11,15,16.90
2017,08,15,11,16,17.00
2017,08,15,11,17,17.10
2017,08,15,11,18,17.20
2017,08,15,11,19,17.20
2017,08,15,11,20,17.20
2017,08,15,11,21,17.10
2017,08,15,11,22,17.00
2017,08,15,11,23,16.90
2017,08,15,11,24,16.80
2017,08,15,11,25,16.70
2017,08,15,11,26,16.70
2017,08,15,11,27,16.70
2017,08,15,11,28,16.70
2017,08,15,11,29,16.80
2017,08,15,11,30,16.90
2017,08,15,11,31,17.00
2017,08,15,11,32,17.10
2017,08,15,11,33,17.20
2017,08,15,11,34,17.30
2017,08,15,11,35,17.30
2017,08,15,11,36,17.30
2017,08,15,11,37,17.30
2017,08,15,11,38,17.30
2017,08,15,11,39,17.30
2017,08,15,11,40,17.30
2017,08,15,11,41,17.40
2017,08,15,11,42,17.50
2017,08,15,11,43,17.50
2017,08,15,11,44,17.60
2017,08,15,11,45,17.60
2017,08,15,11,46,17.60
2017,08,15,11,47,17.60
2017,08,15,11,48,17.60
2017,08,15,11,49,17.60
2017,08,15,11,50,17.60
2017,08,15,11,51,17.60
2017,08,15,11,52,17.60
2017,08,15,11,53,17.60
2017,08,15,11,54,17.70
2017,08,15,11,55,17.70
2017,08,15,11,56,17.70
2017,08,15,11,57,17.70
2017,08,15,11,58,17.60
2017,08,15,11,59,17.50
2017,08,15,12,00,17.40
2017,08,15,12,01,17.40
2017,08,15,12,02,17.40
2017,08,15,12,03,17.30
2017,08,15,12,04,17.20
2017,08,15,12,05,17.20
2017,08,15,12,06,17.10
2017,08,15,12,07,17.00
2017,08,15,12,08,17.00
2017,08,15,12,09,17.00
2017,08,15,12,10,17.00
2017,08,15,12,11,17.10
2017,08,15,12,12,17.20
2017,08,15,12,13,17.30
2017,08,15,12,14,17.30
2017,08,15,12,15,17.30
2017,08,15,12,16,17.30
2017,08,15,12,17,17.30
2017,08,15,12,18,17.30
2017,08,15,12,19,17.30
2017,08,15,12,20,17.30
2017,08,15,12,21,17.30
2017,08,15,12,22,17.30
2017,08,15,12,23,17.30
2017,08,15,12,24,17.30
2017,08,15,12,25,17.30
2017,08,15,12,26,17.30
2017,08,15,12,27,17.30
2017,08,15,12,28,17.40
2017,08,15,12,29,17.50
2017,08,15,12,30,17.50
2017,08,15,12,31,17.50
2017,08,15,12,32,17.60
2017,08,15,12,33,17.70
2017,08,15,12,34,17.80
2017,08,15,12,35,17.80
2017,08,15,12,36,17.90
2017,08,15,12,37,17.90
2017,08,15,12,38,18.00
2017,08,15,12,39,18.10
2017,08,15,12,40,18.20
2017,08,15,12,41,18.20
2017,08,15,12,42,18.20
2017,08,15,12,43,18.20
2017,08,15,12,44,18.20
2017,08,15,12,45,18.20
2017,08,15,12,46,18.30
2017,08,15,12,47,18.40
2017,08,15,12,48,18.50
2017,08,15,12,49,18.60
2017,08,15,12,50,18.70
2017,08,15,12,51,18.70
2017,08,15,12,52,18.80
2017,08,15,12,53,18.90
2017,08,15,12,54,19.00
2017,08,15,12,55,19.10
2017,08,15,12,56,19.10
2017,08,15,12,57,19.20
2017,08,15,12,58,19.30
2017,08,15,12,59,19.20
2017,08,15,13,00,19.30
2017,08,15,13,01,19.30
2017,08,15,13,02,19.30
2017,08,15,13,03,19.30
2017,08,15,13,04,19.30
2017,08,15,13,05,19.20
2017,08,15,13,06,19.10
2017,08,15,13,07,19.10
2017,08,15,13,08,19.00
2017,08,15,13,09,18.90
2017,08,15,13,10,18.80
2017,08,15,13,11,18.80
2017,08,15,13,12,18.80
2017,08,15,13,13,18.80
2017,08,15,13,14,18.80
2017,08,15,13,15,18.70
2017,08,15,13,16,18.70
2017,08,15,13,17,18.70
2017,08,15,13,18,18.70
2017,08,15,13,19,18.70
2017,08,15,13,20,18.80
2017,08,15,13,21,18.80
2017,08,15,13,22,18.80
2017,08,15,13,23,18.80
2017,08,15,13,24,18.80
2017,08,15,13,25,18.80
2017,08,15,13,26,18.80
2017,08,15,13,27,18.80
2017,08,15,13,28,18.90
2017,08,15,13,29,19.00
2017,08,15,13,30,19.00
2017,08,15,13,31,19.10
2017,08,15,13,32,19.10
2017,08,15,13,33,19.20
2017,08,15,13,34,19.30
2017,08,15,13,35,19.40
2017,08,15,13,36,19.50
2017,08,15,13,37,19.60
2017,08,15,13,38,19.60
2017,08,15,13,39,19.60
2017,08,15,13,40,19.60
2017,08,15,13,41,19.60
2017,08,15,13,42,19.60
2017,08,15,13,43,19.60
2017,08,15,13,44,19.60
2017,08,15,13,45,19.50
2017,08,15,13,46,19.50
2017,08,15,13,47,19.50
2017,08,15,13,48,19.50
2017,08,15,13,49,19.60
2017,08,15,13,50,19.60
2017,08,15,13,51,19.70
2017,08,15,13,52,19.80
2017,08,15,13,53,19.80
2017,08,15,13,54,19.90
2017,08,15,13,55,20.00
2017,08,15,13,56,20.10
2017,08,15,13,57,20.20
2017,08,15,13,58,20.20
2017,08,15,13,59,20.30
2017,08,15,14,00,20.20
2017,08,15,14,01,20.20
2017,08,15,14,02,20.20
2017,08,15,14,03,20.20
2017,08,15,14,04,20.20
2017,08,15,14,05,20.10
2017,08,15,14,06,20.00
2017,08,15,14,07,19.90
2017,08,15,14,08,19.90
2017,08,15,14,09,19.80
2017,08,15,14,10,19.70
2017,08,15,14,11,19.60
2017,08,15,14,12,19.60
2017,08,15,14,13,19.50
2017,08,15,14,14,19.50
2017,08,15,14,15,19.40
2017,08,15,14,16,19.30
2017,08,15,14,17,19.30
2017,08,15,14,18,19.20
2017,08,15,14,19,19.20
2017,08,15,14,20,19.20
2017,08,15,14,21,19.10
2017,08,15,14,22,19.10
2017,08,15,14,23,19.00
2017,08,15,14,24,18.90
2017,08,15,14,25,18.90
2017,08,15,14,26,18.90
2017,08,15,14,27,18.80
2017,08,15,14,28,18.80
2017,08,15,14,29,18.80
2017,08,15,14,30,18.70
2017,08,15,14,31,18.70
2017,08,15,14,32,18.80
2017,08,15,14,33,18.80
2017,08,15,14,34,18.80
2017,08,15,14,35,18.90
2017,08,15,14,36,18.90
2017,08,15,14,37,18.90
2017,08,15,14,38,19.00
2017,08,15,14,39,19.10
2017,08,15,14,40,19.20
2017,08,15,14,41,19.20
2017,08,15,14,42,19.30
2017,08,15,14,43,19.40
2017,08,15,14,44,19.40
2017,08,15,14,45,19.20
2017,08,15,14,46,19.20
2017,08,15,14,47,19.00
2017,08,15,14,48,18.70
2017,08,15,14,49,18.50
2017,08,15,14,50,18.50
2017,08,15,14,51,18.40
2017,08,15,14,52,18.50
2017,08,15,14,53,18.60
2017,08,15,14,54,18.70
2017,08,15,14,55,18.80
2017,08,15,14,56,18.80
2017,08,15,14,57,18.70
2017,08,15,14,58,18.70
2017,08,15,14,59,18.60
2017,08,15,15,00,18.60
2017,08,15,15,01,18.60
2017,08,15,15,02,18.70
2017,08,15,15,03,18.70
2017,08,15,15,04,18.80
2017,08,15,15,05,18.80
2017,08,15,15,06,18.80
2017,08,15,15,07,18.80
2017,08,15,15,08,18.80
2017,08,15,15,09,18.80
2017,08,15,15,10,18.80
2017,08,15,15,11,18.80
2017,08,15,15,12,18.70
2017,08,15,15,13,18.60
2017,08,15,15,14,18.40
2017,08,15,15,15,18.20
2017,08,15,15,16,18.10
2017,08,15,15,17,18.00
2017,08,15,15,18,17.90
2017,08,15,15,19,17.80
2017,08,15,15,20,17.80
2017,08,15,15,21,17.80
2017,08,15,15,22,17.90
2017,08,15,15,23,17.90
2017,08,15,15,24,18.00
2017,08,15,15,25,18.00
2017,08,15,15,26,18.20
2017,08,15,15,27,18.20
2017,08,15,15,28,18.30
2017,08,15,15,29,18.40
2017,08,15,15,30,18.40
2017,08,15,15,31,18.30
2017,08,15,15,32,18.20
2017,08,15,15,33,18.10
2017,08,15,15,34,18.00
2017,08,15,15,35,17.90
2017,08,15,15,36,17.80
2017,08,15,15,37,17.80
2017,08,15,15,38,17.90
2017,08,15,15,39,17.90
2017,08,15,15,40,18.00
2017,08,15,15,41,18.10
2017,08,15,15,42,18.10
2017,08,15,15,43,18.20
2017,08,15,15,44,18.20
2017,08,15,15,45,18.30
2017,08,15,15,46,18.40
2017,08,15,15,47,18.50
2017,08,15,15,48,18.60
2017,08,15,15,49,18.70
2017,08,15,15,50,18.70
2017,08,15,15,51,18.80
2017,08,15,15,52,18.80
2017,08,15,15,53,19.00
2017,08,15,15,54,19.00
2017,08,15,15,55,19.10
2017,08,15,15,56,19.10
2017,08,15,15,57,19.00
2017,08,15,15,58,18.90
2017,08,15,15,59,18.90
2017,08,15,16,00,18.90
2017,08,15,16,01,18.90
2017,08,15,16,02,18.90
2017,08,15,16,03,18.90
2017,08,15,16,04,18.80
2017,08,15,16,05,18.80
2017,08,15,16,06,18.80
2017,08,15,16,07,18.80
2017,08,15,16,08,18.80
2017,08,15,16,09,18.90
2017,08,15,16,10,18.90
2017,08,15,16,11,18.90
2017,08,15,16,12,18.90
2017,08,15,16,13,18.90
2017,08,15,16,14,18.80
2017,08,15,16,15,18.80
2017,08,15,16,16,18.70
2017,08,15,16,17,18.50
2017,08,15,16,18,18.40
2017,08,15,16,19,18.20
2017,08,15,16,20,18.10
2017,08,15,16,21,17.90
2017,08,15,16,22,17.80
2017,08,15,16,23,17.50
2017,08,15,16,24,17.30
2017,08,15,16,25,17.30
2017,08,15,16,26,17.20
2017,08,15,16,27,17.20
2017,08,15,16,28,17.20
2017,08,15,16,29,17.20
2017,08,15,16,30,17.20
2017,08,15,16,31,17.20
2017,08,15,16,32,17.30
2017,08,15,16,33,17.30
2017,08,15,16,34,17.30
2017,08,15,16,35,17.30
2017,08,15,16,36,17.40
2017,08,15,16,37,17.40
2017,08,15,16,38,17.40
2017,08,15,16,39,17.40
2017,08,15,16,40,17.50
2017,08,15,16,41,17.50
2017,08,15,16,42,17.50
2017,08,15,16,43,17.40
2017,08,15,16,44,17.40
2017,08,15,16,45,17.30
2017,08,15,16,46,17.30
2017,08,15,16,47,17.30
2017,08,15,16,48,17.20
2017,08,15,16,49,17.10
2017,08,15,16,50,17.00
2017,08,15,16,51,16.90
2017,08,15,16,52,16.80
2017,08,15,16,53,16.60
2017,08,15,16,54,16.60
2017,08,15,16,55,16.60
2017,08,15,16,56,16.60
2017,08,15,16,57,16.60
2017,08,15,16,58,16.60
2017,08,15,16,59,16.60
2017,08,15,17,00,16.60
2017,08,15,17,01,16.60
2017,08,15,17,02,16.70
2017,08,15,17,03,16.70
2017,08,15,17,04,16.80
2017,08,15,17,05,16.90
2017,08,15,17,06,17.00
2017,08,15,17,07,17.10
2017,08,15,17,08,17.10
2017,08,15,17,09,17.20
2017,08,15,17,10,17.20
2017,08,15,17,11,17.20
2017,08,15,17,12,17.30
2017,08,15,17,13,17.30
2017,08,15,17,14,17.40
2017,08,15,17,15,17.40
2017,08,15,17,16,17.50
2017,08,15,17,17,17.50
2017,08,15,17,18,17.50
2017,08,15,17,19,17.50
2017,08,15,17,20,17.60
2017,08,15,17,21,17.60
2017,08,15,17,22,17.70
2017,08,15,17,23,17.70
2017,08,15,17,24,17.80
2017,08,15,17,25,17.80
2017,08,15,17,26,17.90
2017,08,15,17,27,17.90
2017,08,15,17,28,18.00
2017,08,15,17,29,18.00
2017,08,15,17,30,18.10